Marshfield, WI

12:52 PM CDT on June 26, 2017 (GMT -0500)
Marshfield Municipal

Weather History for KMFI - January, 2013

Change the Weather History Date:

Wednesday, January 23, 2013

  Actual Average Record
Temperature  
Mean Temperature 4 °F -  
Max Temperature 12 °F 26 °F 47 °F (1942)
Min Temperature -4 °F 8 °F -37 °F (1963)
Degree Days  
Heating Degree Days 61    
Moisture  
Dew Point 0 °F    
Average Humidity 73    
Maximum Humidity 79    
Minimum Humidity 61    
Precipitation  
Precipitation 0.00 in - - ()
Sea Level Pressure  
Sea Level Pressure 30.15 in    
Wind  
Wind Speed 10 mph (NW)    
Max Wind Speed 26 mph    
Max Gust Speed 32 mph    
Visibility 5 miles    
Events Snow    
Averages and records for this station are not official NWS values.
T = Trace of Precipitation, MM = Missing Value Source: NWS Daily Summary

Daily Weather History Graph

Daily Weather History Graph

Search for Another Location

Airport or City:

Trip Planner

Search our weather history database for the weather conditions in past years. The results will help you decide how hot, cold, wet, or windy it might be!

Date:

Astronomy

Jan. 23, 2013 Rise Set
Actual Time 7:28 AM CST 4:57 PM CST
Civil Twilight 6:56 AM CST 5:29 PM CST
Nautical Twilight 6:21 AM CST 6:04 PM CST
Astronomical Twilight 5:46 AM CST 6:39 PM CST
Moon 2:05 PM CST (1/23) 4:42 AM CST (1/23)
Length of Visible Light 10h 32m
Length of Day
9h 29m
Waxing Gibbous, 89% of the Moon is Illuminated
Jan 23
Waxing Gibbous
Jan 26
Full
Feb 3
Last Quarter
Feb 10
New
Feb 17
First Quarter

Hourly Weather History & Observations

Time (CST) Temp. Windchill Dew Point Humidity Pressure Visibility Wind Dir Wind Speed Gust Speed Precip Events Conditions
12:54 AM -4.0 °F - -9.9 °F 76% 30.30 in 10.0 mi Calm Calm - N/A   Mostly Cloudy
1:54 AM -0.9 °F -12.7 °F -7.1 °F 75% 30.28 in 10.0 mi West 5.8 mph - N/A   Overcast
2:54 AM 1.0 °F -10.3 °F -7.1 °F 69% 30.27 in 10.0 mi West 5.8 mph - N/A   Overcast
3:54 AM 1.9 °F -9.2 °F -6.0 °F 69% 30.25 in 10.0 mi West 5.8 mph - N/A   Overcast
4:54 AM 1.9 °F -7.6 °F -5.1 °F 72% 30.24 in 10.0 mi West 4.6 mph - N/A   Overcast
5:54 AM 3.0 °F -9.3 °F -5.1 °F 69% 30.23 in 10.0 mi West 6.9 mph - N/A   Overcast
6:54 AM 3.0 °F -4.4 °F -5.1 °F 69% 30.22 in 10.0 mi West 3.5 mph - N/A   Overcast
7:54 AM 3.9 °F -3.4 °F -2.9 °F 73% 30.22 in 7.0 mi WSW 3.5 mph - N/A   Overcast
8:54 AM 5.0 °F -6.9 °F -2.0 °F 73% 30.20 in 4.0 mi WSW 6.9 mph - 0.00 in Snow Light Snow
9:54 AM 7.0 °F -3.3 °F -0.0 °F 73% 30.20 in 5.0 mi West 5.8 mph - 0.00 in Snow Light Snow
10:54 AM 9.0 °F -0.9 °F 1.0 °F 70% 30.18 in 5.0 mi West 5.8 mph - 0.00 in   Haze
11:16 AM 8.6 °F -1.3 °F 3.2 °F 79% 30.07 in 2.5 mi WNW 5.8 mph - 0.00 in Snow Light Snow
11:27 AM 10.4 °F 2.2 °F 3.2 °F 73% 30.06 in 1.5 mi Variable 4.6 mph - 0.00 in Snow Light Snow
11:45 AM 10.4 °F -0.4 °F 3.2 °F 73% 30.06 in 2.5 mi WNW 6.9 mph - 0.00 in   Haze
11:52 AM 10.4 °F -0.4 °F 5.0 °F 79% 30.05 in 3.0 mi WNW 6.9 mph - 0.00 in   Haze
11:54 AM 10.9 °F 0.2 °F 5.0 °F 77% 30.15 in 3.0 mi WNW 6.9 mph - 0.00 in   Haze
12:15 PM 10.4 °F -0.4 °F 3.2 °F 73% 30.04 in 2.5 mi West 6.9 mph - 0.00 in Snow Light Snow
12:46 PM 12.2 °F 0.7 °F 5.0 °F 73% 30.03 in 3.0 mi West 8.1 mph - 0.00 in Snow Light Snow
12:54 PM 12.0 °F 1.5 °F 3.9 °F 70% 30.12 in 2.5 mi West 6.9 mph - 0.00 in Snow Light Snow
1:19 PM 12.2 °F 0.7 °F 5.0 °F 73% 30.02 in 3.0 mi West 8.1 mph - 0.00 in   Haze
1:28 PM 12.2 °F 0.7 °F 6.8 °F 79% 30.01 in 2.5 mi West 8.1 mph - 0.00 in Snow Light Snow
1:38 PM 12.2 °F 0.7 °F 6.8 °F 79% 30.01 in 1.2 mi WNW 8.1 mph - 0.00 in Snow Light Snow
1:45 PM 12.2 °F -0.2 °F 6.8 °F 79% 30.01 in 1.0 mi WNW 9.2 mph - 0.00 in Snow Light Snow
1:54 PM 12.9 °F -0.9 °F 7.0 °F 77% 30.11 in 1.8 mi WNW 11.5 mph - 0.00 in Snow Light Snow
2:02 PM 12.2 °F 0.7 °F 6.8 °F 79% 30.01 in 2.5 mi West 8.1 mph - 0.00 in Snow Light Snow
2:25 PM 12.2 °F -3.7 °F 6.8 °F 79% 30.01 in 1.0 mi NW 15.0 mph - 0.00 in Snow Light Snow
2:36 PM 12.2 °F -3.7 °F 6.8 °F 79% 30.02 in 2.5 mi NW 15.0 mph 23.0 mph 0.00 in Snow Light Snow
2:44 PM 12.2 °F -3.7 °F 5.0 °F 73% 30.02 in 6.0 mi WNW 15.0 mph - 0.00 in   Haze
2:54 PM 12.9 °F -3.9 °F 1.9 °F 62% 30.12 in 8.0 mi WNW 17.3 mph 28.8 mph 0.00 in   Overcast
3:12 PM 12.2 °F -4.8 °F 3.2 °F 67% 30.04 in 4.0 mi WNW 17.3 mph - 0.00 in Snow Light Snow
3:19 PM 12.2 °F -3.7 °F 3.2 °F 67% 30.04 in 8.0 mi NW 15.0 mph 26.5 mph 0.00 in   Overcast
3:29 PM 12.2 °F -5.3 °F 5.0 °F 73% 30.05 in 1.5 mi NW 18.4 mph 25.3 mph 0.00 in Snow Light Snow
3:31 PM 10.4 °F -7.7 °F 5.0 °F 79% 30.05 in 0.8 mi NW 18.4 mph - 0.00 in Snow Light Snow
3:46 PM 10.4 °F -8.6 °F 5.0 °F 79% 30.06 in 1.2 mi NW 20.7 mph 26.5 mph 0.00 in Snow Light Snow
3:54 PM 10.9 °F -8.8 °F 5.0 °F 77% 30.16 in 1.5 mi NNW 23.0 mph 31.1 mph 0.00 in Snow Light Snow
4:01 PM 10.4 °F -8.6 °F 3.2 °F 73% 30.07 in 2.5 mi NW 20.7 mph - 0.00 in Snow Light Snow
4:04 PM 10.4 °F -10.7 °F 3.2 °F 73% 30.07 in 1.0 mi NNW 26.5 mph 32.2 mph 0.00 in Snow Light Snow
4:11 PM 10.4 °F -8.2 °F 3.2 °F 73% 30.08 in 0.5 mi NW 19.6 mph 32.2 mph 0.00 in Snow Snow
4:15 PM 10.4 °F -7.2 °F 3.2 °F 73% 30.08 in 1.5 mi NW 17.3 mph 31.1 mph 0.00 in Snow Light Snow
4:17 PM 10.4 °F -7.2 °F 3.2 °F 73% 30.08 in 3.0 mi NW 17.3 mph - 0.00 in Snow Light Snow
4:27 PM 8.6 °F -11.0 °F 3.2 °F 79% 30.09 in 1.5 mi NNW 20.7 mph 28.8 mph 0.00 in Snow Light Snow
4:29 PM 8.6 °F -11.4 °F 3.2 °F 79% 30.09 in 0.8 mi NNW 21.9 mph 28.8 mph 0.00 in Snow Light Snow
4:39 PM 8.6 °F -8.9 °F 3.2 °F 79% 30.10 in 1.5 mi NNW 16.1 mph - 0.00 in Snow Light Snow
4:43 PM 8.6 °F -8.9 °F 3.2 °F 79% 30.10 in 4.0 mi NNW 16.1 mph 24.2 mph 0.00 in Snow Light Snow
4:54 PM 9.0 °F -10.0 °F -0.0 °F 67% 30.21 in 5.0 mi NNW 19.6 mph - 0.00 in Snow Light Snow
5:36 PM 6.8 °F -12.4 °F -4.0 °F 61% 30.15 in 10.0 mi North 18.4 mph 28.8 mph 0.00 in   Scattered Clouds
5:54 PM 6.1 °F -12.8 °F -2.0 °F 69% 30.27 in 9.0 mi NNW 17.3 mph - 0.00 in   Mostly Cloudy
6:10 PM 6.8 °F -13.4 °F -2.2 °F 67% 30.19 in 6.0 mi North 20.7 mph 27.6 mph N/A   Haze
6:24 PM 5.0 °F -16.2 °F -0.4 °F 78% 30.21 in 1.8 mi North 21.9 mph 32.2 mph 0.00 in Snow Light Snow
6:37 PM 3.2 °F -18.6 °F -2.2 °F 78% 30.22 in 3.0 mi North 21.9 mph 28.8 mph 0.00 in Snow Light Snow
6:51 PM 3.2 °F -15.9 °F -5.8 °F 66% 30.24 in 10.0 mi NNW 16.1 mph - 0.00 in   Scattered Clouds
6:54 PM 3.0 °F -18.3 °F -5.1 °F 69% 30.35 in 10.0 mi North 20.7 mph 26.5 mph 0.00 in   Scattered Clouds
7:54 PM 1.0 °F -18.0 °F -9.0 °F 63% 30.40 in 10.0 mi NNW 15.0 mph 25.3 mph N/A   Clear
8:54 PM -0.9 °F -21.9 °F -9.9 °F 66% 30.43 in 10.0 mi NNW 17.3 mph - N/A   Clear
9:54 PM -2.0 °F -21.2 °F -11.0 °F 66% 30.47 in 10.0 mi NNW 13.8 mph 21.9 mph N/A   Clear
10:54 PM -2.9 °F -23.1 °F -11.0 °F 68% 30.49 in 10.0 mi NNW 15.0 mph - N/A   Clear
11:54 PM -4.0 °F -22.1 °F -11.0 °F 72% 30.53 in 10.0 mi NNW 11.5 mph - N/A   Clear